Tracking 30145 objects as of 19-Jan-2025
HD Live streaming from Space Station
objects crossing your sky now

SCOUT B DEB

Track SCOUT B DEB now!
10-day predictions


NORAD ID: 2800
Int'l Code: 1966-070D
Perigee: 409.6 km
Apogee: 2,665.0 km
Inclination: 81.4 °
Period: 116.7 minutes
Semi major axis: 7908 km
RCS: 0.0393 m2 (small)
Launch date: August 4, 1966
Source: United States (US)
Launch site: AIR FORCE WESTERN TEST RANGE (AFWTR)

Note: This is SATELLITE DEBRIS
Your satellite tracking list
Your tracking list is empty




NASA's NSSDC Master Catalog

Two Line Element Set (TLE):
1 02800U 66070D   25019.13308594  .00008786  00000-0  11549-2 0  9990
2 02800  81.4047 263.0295 1425944  94.8468 281.6378 12.34457597521113
Source of the keplerian elements: AFSPC